GW7269 Weather Reports


Display with metric or nautical units.
time (UTC)temp
F
wind
direction
speed
MPH
gust
MPH
rain 1hr
in
rain 24hr
in
rain mn
in
humidity
%
barometer
mb
20260506024011 52 290 3.0 8.0 0.00 0.00 0.00 65 1016.0
20260506023513 53 280 3.0 7.0 0.00 0.00 0.00 65 1015.9
20260506023027 53 304 2.0 5.0 0.00 0.00 0.00 64 1015.9
20260506022510 53 261 2.0 7.0 0.00 0.00 0.00 63 1015.9
20260506022010 53 281 2.0 5.0 0.00 0.00 0.00 63 1015.9
20260506021528 53 302 3.0 5.0 0.00 0.00 0.00 61 1015.9
20260506021012 53 293 2.0 7.0 0.00 0.00 0.00 62 1016.0
20260506020515 54 293 3.0 5.0 0.00 0.00 0.00 62 1015.9
20260506020028 54 291 3.0 7.0 0.00 0.00 0.00 61 1015.8
20260506015517 54 279 3.0 7.0 0.00 0.00 0.00 60 1015.8
20260506015010 54 295 3.0 7.0 0.00 0.00 0.00 61 1015.7
20260506014528 55 271 3.0 6.0 0.00 0.00 0.00 59 1015.8
20260506014008 55 281 3.0 6.0 0.00 0.00 0.00 59 1015.6
20260506013511 55 290 2.0 8.0 0.00 0.00 0.00 57 1015.6
20260506013031 55 279 3.0 8.0 0.00 0.00 0.00 55 1015.3
20260506012509 56 267 3.0 8.0 0.00 0.00 0.00 55 1015.2
20260506012013 56 305 4.0 8.0 0.00 0.00 0.00 54 1015.2
20260506011536 56 297 4.0 11.0 0.00 0.00 0.00 55 1015.2
20260506011015 56 292 4.0 8.0 0.00 0.00 0.00 54 1015.3
20260506010511 57 283 3.0 6.0 0.00 0.00 0.00 57 1015.4
20260506010030 57 268 1.0 4.0 0.00 0.00 0.00 55 1015.4
20260506005513 57 279 2.0 8.0 0.00 0.00 0.00 55 1015.4
20260506005011 57 296 3.0 8.0 0.00 0.00 0.00 56 1015.5
20260506004543 58 294 3.0 6.0 0.00 0.00 0.00 55 1015.3
20260506004012 57 298 4.0 7.0 0.00 0.00 0.00 53 1015.4
20260506003511 58 284 2.0 5.0 0.00 0.00 0.00 55 1015.5
20260506003033 58 302 3.0 6.0 0.00 0.00 0.00 57 1015.5
20260506002511 58 288 3.0 6.0 0.00 0.00 0.00 58 1015.4
20260506002017 58 304 3.0 6.0 0.00 0.00 0.00 56 1015.4
20260506001531 58 282 2.0 7.0 0.00 0.00 0.00 55 1015.4
20260506001010 59 286 1.0 6.0 0.00 0.00 0.00 56 1015.5
20260506000513 59 287 3.0 9.0 0.00 0.00 0.00 54 1015.5
20260506000030 58 297 4.0 9.0 0.00 0.00 0.00 56 1015.4
20260505235510 58 282 5.0 8.0 0.00 0.00 0.00 58 1015.3
20260505235013 58 311 5.0 8.0 0.00 0.00 0.00 59 1015.3
20260505234533 59 286 5.0 9.0 0.00 0.00 0.00 57 1015.3
20260505234013 59 304 5.0 11.0 0.00 0.00 0.00 57 1015.3
20260505233516 59 285 6.0 11.0 0.00 0.00 0.00 57 1015.2
20260505233029 58 289 4.0 9.0 0.00 0.00 0.00 59 1015.3
20260505232509 58 275 1.0 6.0 0.00 0.00 0.00 62 1015.3
20260505232009 58 269 1.0 4.0 0.00 0.00 0.00 62 1015.4
20260505231529 58 246 1.0 7.0 0.00 0.00 0.00 64 1015.4
20260505231013 57 271 0.0 5.0 0.00 0.00 0.00 65 1015.4
20260505230510 56 263 1.0 7.0 0.00 0.00 0.00 66 1015.3
20260505230039 57 251 1.0 7.0 0.00 0.00 0.00 65 1015.0
20260505225511 57 282 1.0 4.0 0.00 0.00 0.00 65 1015.0
20260505225015 57 243 1.0 7.0 0.00 0.00 0.00 64 1015.0
20260505224533 57 258 1.0 7.0 0.00 0.00 0.00 63 1015.0
20260505224012 58 259 2.0 4.0 0.00 0.00 0.00 63 1014.9
20260505223512 58 239 0.0 3.0 0.00 0.00 0.00 62 1015.4
20260505223027 58 259 0.0 4.0 0.00 0.00 0.00 62 1015.4
20260505222516 58 257 0.0 4.0 0.00 0.00 0.00 62 1015.7
20260505222012 58 259 1.0 4.0 0.00 0.00 0.00 63 1015.2
20260505221530 58 260 1.0 7.0 0.00 0.00 0.00 63 1015.2
20260505221011 58 249 1.0 4.0 0.00 0.00 0.00 64 1015.2
20260505220512 58 237 1.0 4.0 0.00 0.00 0.00 63 1015.0
20260505220032 58 242 1.0 9.0 0.00 0.00 0.00 63 1014.8
20260505215513 58 223 1.0 4.0 0.00 0.00 0.00 63 1014.7
20260505215012 59 243 1.0 4.0 0.00 0.00 0.00 61 1014.9
20260505214534 59 211 0.0 4.0 0.00 0.00 0.00 61 1015.0
20260505214013 59 223 0.0 3.0 0.00 0.00 0.00 62 1015.0
20260505213517 59 230 0.0 3.0 0.00 0.00 0.00 61 1015.0
20260505213033 59 244 0.0 3.0 0.00 0.00 0.00 60 1015.1
20260505212513 59 230 0.0 3.0 0.00 0.00 0.00 58 1015.1
20260505212012 59 249 0.0 3.0 0.00 0.00 0.00 59 1014.9
20260505211528 59 260 1.0 4.0 0.00 0.00 0.00 59 1014.9
20260505211014 59 257 1.0 4.0 0.00 0.00 0.00 61 1014.9
20260505210515 59 290 0.0 4.0 0.00 0.00 0.00 62 1014.9
20260505210029 59 248 0.0 4.0 0.00 0.00 0.00 62 1014.7
20260505205511 59 234 0.0 1.0 0.00 0.00 0.00 60 1014.6
20260505205009 59 259 0.0 1.0 0.00 0.00 0.00 61 1014.6
20260505204533 59 263 0.0 3.0 0.00 0.00 0.00 61 1014.5
20260505204013 59 251 0.0 3.0 0.00 0.00 0.00 61 1014.5
20260505203510 60 274 0.0 3.0 0.00 0.00 0.00 59 1014.5
20260505203034 61 262 0.0 3.0 0.00 0.00 0.00 59 1014.5
20260505202514 62 277 0.0 4.0 0.00 0.00 0.00 55 1014.4
20260505202012 62 290 1.0 4.0 0.00 0.00 0.00 55 1014.3
20260505201534 62 296 2.0 4.0 0.00 0.00 0.00 55 1014.2
20260505201013 62 279 2.0 4.0 0.00 0.00 0.00 55 1014.2
20260505200511 62 305 1.0 3.0 0.00 0.00 0.00 55 1014.1
20260505200032 62 302 0.0 3.0 0.00 0.00 0.00 55 1014.1
20260505195516 61 281 0.0 3.0 0.00 0.00 0.00 56 1014.1
20260505195012 61 283 0.0 1.0 0.00 0.00 0.00 56 1014.1
20260505194533 61 290 0.0 1.0 0.00 0.00 0.00 57 1014.1
20260505194012 60 263 0.0 1.0 0.00 0.00 0.00 60 1014.1
20260505193511 61 273 0.0 1.0 0.00 0.00 0.00 58 1014.2
20260505193052 60 250 0.0 6.0 0.00 0.00 0.00 59 1014.1
20260505192511 60 275 0.0 6.0 0.00 0.00 0.00 59 1014.1
20260505192011 60 300 0.0 1.0 0.00 0.00 0.00 59 1014.2
20260505191529 60 265 0.0 1.0 0.00 0.00 0.00 59 1014.2
20260505191013 59 270 0.0 1.0 0.00 0.00 0.00 60 1014.2
20260505190515 59 268 0.0 1.0 0.00 0.00 0.00 63 1014.1
20260505190039 59 272 0.0 1.0 0.00 0.00 0.00 64 1014.1
20260505185516 59 294 0.0 2.0 0.00 0.00 0.00 65 1014.1
20260505185015 58 259 0.0 2.0 0.00 0.00 0.00 66 1013.9
20260505184531 57 271 0.0 0.0 0.00 0.00 0.00 66 1013.9
20260505184013 57 291 0.0 0.0 0.00 0.00 0.00 68 1014.0
20260505183510 57 282 0.0 0.0 0.00 0.00 0.00 68 1014.0
20260505183030 57 275 0.0 0.0 0.00 0.00 0.00 67 1013.8
20260505182510 57 299 0.0 0.0 0.00 0.00 0.00 67 1013.9
20260505182013 58 290 0.0 0.0 0.00 0.00 0.00 66 1013.9
20260505181532 59 292 0.0 0.0 0.00 0.00 0.00 64 1014.0
20260505181012 60 289 0.0 0.0 0.00 0.00 0.00 62 1013.8
20260505180513 61 259 0.0 0.0 0.00 0.00 0.00 59 1013.7
20260505180037 62 266 0.0 0.0 0.00 0.00 0.00 60 1013.7
20260505175514 62 254 0.0 2.0 0.00 0.00 0.00 59 1013.7
20260505175013 62 135 0.0 3.0 0.00 0.00 0.00 59 1013.6
20260505174529 61 81 1.0 3.0 0.00 0.00 0.00 59 1013.4
20260505174013 60 68 0.0 2.0 0.00 0.00 0.00 63 1013.4
20260505173515 58 22 0.0 1.0 0.00 0.00 0.00 64 1013.3
20260505173032 58 301 0.0 0.0 0.00 0.00 0.00 66 1013.3
20260505172511 57 302 0.0 0.0 0.00 0.00 0.00 68 1013.2
20260505172011 56 304 0.0 1.0 0.00 0.00 0.00 68 1013.3
20260505171532 56 317 0.0 1.0 0.00 0.00 0.00 68 1013.3
20260505171013 56 289 0.0 3.0 0.00 0.00 0.00 69 1013.3
20260505170514 56 294 0.0 3.0 0.00 0.00 0.00 69 1013.2
20260505170034 56 306 1.0 2.0 0.00 0.00 0.00 69 1013.2
20260505165512 56 284 0.0 1.0 0.00 0.00 0.00 70 1013.2
20260505165012 56 291 0.0 0.0 0.00 0.00 0.00 68 1013.3
20260505164536 58 282 0.0 1.0 0.00 0.00 0.00 66 1013.1
20260505164014 59 299 0.0 1.0 0.00 0.00 0.00 63 1013.0
20260505163512 61 177 0.0 1.0 0.00 0.00 0.00 62 1012.9
20260505163039 61 142 0.0 3.0 0.00 0.00 0.00 58 1012.9
20260505162512 60 151 0.0 3.0 0.00 0.00 0.00 59 1012.8
20260505162014 60 55 0.0 1.0 0.00 0.00 0.00 59 1012.9
20260505161532 59 308 0.0 0.0 0.00 0.00 0.00 64 1012.8
20260505161011 59 326 0.0 0.0 0.00 0.00 0.00 63 1012.7
20260505160512 59 55 0.0 0.0 0.00 0.00 0.00 63 1012.6
20260505153043 57 70 0.0 3.0 0.00 0.00 0.00 70 1012.3
20260505152512 57 67 0.0 3.0 0.00 0.00 0.00 71 1012.3
20260505152020 56 55 0.0 1.0 0.00 0.00 0.00 75 1012.2
20260505151534 54 67 0.0 0.0 0.00 0.00 0.00 76 1012.1
20260505151013 54 67 0.0 0.0 0.00 0.00 0.00 78 1012.3
20260505150515 52 83 0.0 0.0 0.00 0.00 0.00 81 1012.3
20260505140515 51 128 0.0 3.0 0.00 0.00 0.00 79 1011.8
20260505125014 50 135 0.0 1.0 0.00 0.00 0.00 81 1011.0
20260505124540 50 117 0.0 2.0 0.00 0.00 0.00 81 1010.9
20260505124013 49 107 1.0 2.0 0.00 0.00 0.00 82 1010.9
20260505123513 49 126 0.0 1.0 0.00 0.00 0.00 82 1011.0
20260505123048 49 121 0.0 1.0 0.00 0.00 0.00 83 1011.0
20260505122514 49 92 0.0 0.0 0.00 0.00 0.00 83 1011.0
20260505122014 49 91 0.0 0.0 0.00 0.00 0.00 83 1011.1
20260505121540 49 95 0.0 1.0 0.00 0.00 0.00 83 1011.0
20260505121016 49 95 0.0 1.0 0.00 0.00 0.00 83 1011.1
20260505120516 49 97 0.0 1.0 0.00 0.00 0.00 83 1011.0
20260505120052 49 76 0.0 3.0 0.00 0.00 0.00 83 1011.1
20260505115512 49 71 0.0 3.0 0.00 0.00 0.00 83 1011.1
20260505115016 49 68 0.0 1.0 0.00 0.00 0.00 82 1011.1
20260505114552 50 68 0.0 1.0 0.00 0.00 0.00 81 1011.0
20260505114016 50 68 0.0 0.0 0.00 0.00 0.00 80 1011.1
20260505113513 51 67 0.0 0.0 0.00 0.00 0.00 78 1011.0
20260505113051 52 65 0.0 0.0 0.00 0.00 0.00 76 1011.0
20260505112518 52 352 0.0 0.0 0.00 0.00 0.00 74 1011.1
20260505112015 52 352 0.0 0.0 0.00 0.00 0.00 74 1010.9
20260505111546 52 310 0.0 0.0 0.00 0.00 0.00 74 1010.9
20260505111015 53 310 0.0 0.0 0.00 0.00 0.00 73 1011.0
20260505110518 53 310 0.0 2.0 0.00 0.00 0.00 73 1011.0
20260505102016 54 301 0.0 0.0 0.00 0.00 0.00 71 1010.9
20260505101544 54 301 0.0 0.0 0.00 0.00 0.00 71 1011.0
20260505101015 54 301 0.0 0.0 0.00 0.00 0.00 71 1011.0
20260505100516 54 301 0.0 2.0 0.00 0.00 0.00 71 1011.0
20260505100057 53 301 0.0 2.0 0.00 0.00 0.00 72 1010.9
20260505095513 52 300 1.0 2.0 0.00 0.00 0.00 74 1010.9
20260505095016 51 276 0.0 1.0 0.00 0.00 0.00 78 1010.9
20260505094542 52 272 0.0 1.0 0.00 0.00 0.00 76 1010.8
20260505094015 53 271 0.0 2.0 0.00 0.00 0.00 74 1011.0
20260505093515 53 271 0.0 2.0 0.00 0.00 0.00 73 1011.0
20260505093049 54 245 0.0 0.0 0.00 0.00 0.00 71 1011.0
20260505092513 54 207 0.0 0.0 0.00 0.00 0.00 70 1011.0
20260505092016 54 139 0.0 0.0 0.00 0.00 0.00 70 1010.9
20260505091603 55 139 0.0 1.0 0.00 0.00 0.00 69 1010.8
20260505091015 55 117 0.0 1.0 0.00 0.00 0.00 68 1010.8
20260505090516 56 327 0.0 0.0 0.00 0.00 0.00 67 1010.7
20260505090104 56 327 0.0 0.0 0.00 0.00 0.00 67 1010.7
20260505085514 56 327 0.0 0.0 0.00 0.00 0.00 66 1010.7
20260505085017 57 327 0.0 0.0 0.00 0.00 0.00 66 1010.7
20260505084607 57 327 0.0 0.0 0.00 0.00 0.00 66 1010.6
20260505084012 56 327 0.0 0.0 0.00 0.00 0.00 66 1010.6
20260505083517 56 350 0.0 0.0 0.00 0.00 0.00 66 1010.7
20260505083104 56 98 0.0 0.0 0.00 0.00 0.00 67 1010.6
20260505082516 56 98 0.0 0.0 0.00 0.00 0.00 66 1010.6
20260505082016 56 98 0.0 0.0 0.00 0.00 0.00 67 1010.5
20260505081603 55 98 0.0 0.0 0.00 0.00 0.00 67 1010.4
20260505081015 55 98 0.0 0.0 0.00 0.00 0.00 69 1010.4
20260505080517 55 98 0.0 0.0 0.00 0.00 0.00 69 1010.4
20260505075518 55 98 0.0 1.0 0.00 0.00 0.00 69 1010.5
20260505075019 55 56 0.0 2.0 0.00 0.00 0.00 69 1010.5
20260505074552 55 49 0.0 2.0 0.00 0.00 0.00 69 1010.4
20260505074014 55 49 0.0 0.0 0.00 0.00 0.00 69 1010.5
20260505073518 55 47 0.0 1.0 0.00 0.00 0.00 69 1010.4
20260505073101 55 56 0.0 1.0 0.00 0.00 0.00 68 1010.3
20260505072515 55 333 0.0 5.0 0.00 0.00 0.00 68 1010.3
20260505072017 55 317 2.0 5.0 0.00 0.00 0.00 67 1010.3
20260505071554 56 323 2.0 5.0 0.00 0.00 0.00 66 1010.4
20260505071016 56 325 3.0 6.0 0.00 0.00 0.00 65 1010.3
20260505070518 57 324 3.0 6.0 0.00 0.00 0.00 64 1010.6
20260505070052 58 289 3.0 6.0 0.00 0.00 0.00 62 1010.6
20260505065516 58 317 3.0 6.0 0.00 0.00 0.00 61 1010.6
20260505065014 58 315 2.0 6.0 0.00 0.00 0.00 61 1010.6
20260505064555 59 311 2.0 4.0 0.00 0.00 0.00 60 1010.6
20260505064019 59 291 2.0 3.0 0.00 0.00 0.00 60 1010.4
20260505063516 59 300 0.0 1.0 0.00 0.00 0.00 59 1010.5
20260505063051 59 314 0.0 1.0 0.00 0.00 0.00 59 1010.5
20260505062517 59 348 0.0 0.0 0.00 0.00 0.00 59 1010.5
20260505062016 59 348 0.0 0.0 0.00 0.00 0.00 60 1010.3
20260505061611 59 348 0.0 0.0 0.00 0.00 0.00 60 1010.2
20260505061017 59 345 0.0 0.0 0.00 0.00 0.00 60 1010.3
20260505060517 59 333 0.0 0.0 0.00 0.00 0.00 60 1010.4
20260505060103 59 321 0.0 2.0 0.00 0.00 0.00 60 1010.5
20260505055516 59 313 0.0 2.0 0.00 0.00 0.00 60 1010.6
20260505055014 59 331 0.0 3.0 0.00 0.00 0.00 60 1010.6
20260505054554 59 331 1.0 3.0 0.00 0.00 0.00 61 1010.3
20260505054020 59 330 1.0 3.0 0.00 0.00 0.00 61 1010.4
20260505053515 59 330 0.0 2.0 0.00 0.00 0.00 62 1010.3
20260505053055 59 329 0.0 3.0 0.00 0.00 0.00 61 1010.3
20260505052515 59 331 0.0 6.0 0.00 0.00 0.00 61 1010.3
20260505052016 60 318 2.0 6.0 0.00 0.00 0.00 59 1010.5
20260505051548 60 317 0.0 3.0 0.00 0.00 0.00 58 1010.4
20260505051017 61 323 0.0 3.0 0.00 0.00 0.00 56 1010.4
20260505050518 62 309 0.0 2.0 0.00 0.00 0.00 55 1010.5
20260505041531 64 328 0.0 3.0 0.00 0.00 0.00 51 1010.4
20260505041009 64 333 1.0 4.0 0.00 0.00 0.00 51 1010.3
20260505040513 64 325 2.0 9.0 0.00 0.00 0.00 51 1010.4
20260505040027 64 327 2.0 4.0 0.00 0.00 0.00 51 1010.4
20260505035509 64 327 2.0 3.0 0.00 0.00 0.00 52 1010.4
20260505035011 64 327 2.0 3.0 0.00 0.00 0.00 52 1010.5
20260505034529 64 329 2.0 3.0 0.00 0.00 0.00 52 1010.6
20260505034013 64 332 1.0 3.0 0.00 0.00 0.00 51 1010.4
20260505033509 64 331 1.0 4.0 0.00 0.00 0.00 51 1010.8
20260505033027 65 317 2.0 4.0 0.00 0.00 0.00 51 1010.7
20260505032511 65 324 2.0 8.0 0.00 0.00 0.00 50 1010.7
20260505032014 66 332 3.0 8.0 0.00 0.00 0.00 49 1010.8
20260505031526 66 310 3.0 8.0 0.00 0.00 0.00 48 1010.8
20260505031010 67 326 3.0 7.0 0.00 0.00 0.00 48 1010.7
20260505030509 68 325 3.0 5.0 0.00 0.00 0.00 47 1010.8
20260505030028 68 312 2.0 4.0 0.00 0.00 0.00 46 1010.9
20260505025515 68 327 3.0 4.0 0.00 0.00 0.00 45 1010.5
20260505025012 68 329 2.0 7.0 0.00 0.00 0.00 46 1010.8
20260505024527 68 331 3.0 5.0 0.00 0.00 0.00 46 1010.9
20260505024015 68 320 3.0 4.0 0.00 0.00 0.00 46 1010.7